Darstellungsparameter: Aktuell verwendete Einstellungen:
Skalierung der Graphiken ... ?
xyx+y,   Skalierungsfaktor:      Skalierung: Modus: x, Faktor: 1
Darstellungszeitraum ... ?
Vom - - bis: - -   Zeitraum: 05.05.2021 - 05.05.2021
Min/Max/Avg-Anzeige ... ?
Zeige MMA aktuell
Zeige MMA Monat
Zeige MMA alles
Zeige --A aktuell
Zeige --A Monat
Zeige --A alles
Keine MMA-Anzeige
MMA:
Average (ber die Originaldaten)
MMA-Basis: 23.02.2003 - 06.05.2021
Quicknavigation für Darstellung... ?
Tage:      1T, 2T, 3T, 5T -1T -2T -3T -5T +1T +2T +3T +5T
Wochen: 1W, 2W, 3W -1W -2W -3W +1W +2W +3W
Monate: 1M, 3M, 6M -1M -3M -6M +1M +3M +6M
Jahre:    1J, 3J, 5J, 10J -1J -3J -5J -10J +1J +3J +5J +10J
Nutze für die Darstellung ... ?
Originaldaten oder Mittelwerte auf ...
Stundenbasis Tagesbasis Wochenbasis
Monatsbasis Jahresbasis      Datenbasis: Original-Daten
Darstellen als:
Statistik (Auto) Statistik J:M      Darstellung:
Zur Graphik,    zurück zur Übersicht aller Sensoren.
 
Tabellarische Datenbersicht: ?
 
Sensor: Nr:Datum:Temp:Abs-Feuchte:Windchill:Wind:
Aussen-T/F 1 05-05-2021 00:00:00 6.9 C 7.01 g/m*3 6.9 C 3.2 km/h
2 05-05-2021 00:05:00 6.8 C 6.96 g/m*3 6.8 C 4.8 km/h
3 05-05-2021 00:10:00 6.7 C 6.91 g/m*3 6.7 C 4.8 km/h
4 05-05-2021 00:15:00 6.6 C 6.87 g/m*3 6.6 C 4.8 km/h
5 05-05-2021 00:20:00 6.4 C 6.78 g/m*3 6.4 C 4.8 km/h
6 05-05-2021 00:25:00 6.4 C 6.78 g/m*3 6.4 C 3.2 km/h
7 05-05-2021 00:30:00 6.3 C 6.74 g/m*3 6.3 C 4.8 km/h
8 05-05-2021 00:35:00 6.2 C 6.77 g/m*3 6.2 C 4.8 km/h
9 05-05-2021 00:40:00 6.2 C 6.77 g/m*3 6.2 C 3.2 km/h
10 05-05-2021 00:45:00 6.1 C 6.65 g/m*3 6.1 C 3.2 km/h
11 05-05-2021 00:50:00 6.1 C 6.72 g/m*3 4.86 C 6.4 km/h
12 05-05-2021 00:55:00 6 C 6.68 g/m*3 6 C 1.6 km/h
13 05-05-2021 01:00:00 5.9 C 6.63 g/m*3 5.9 C 3.2 km/h
14 05-05-2021 01:05:00 5.8 C 6.59 g/m*3 5.8 C 3.2 km/h
15 05-05-2021 01:10:00 5.8 C 6.59 g/m*3 5.8 C 1.6 km/h
16 05-05-2021 01:15:00 5.7 C 6.55 g/m*3 5.7 C 3.2 km/h
17 05-05-2021 01:20:00 5.6 C 6.5 g/m*3 5.6 C 3.2 km/h
18 05-05-2021 01:25:00 5.6 C 6.5 g/m*3 5.6 C 1.6 km/h
19 05-05-2021 01:30:00 5.6 C 6.5 g/m*3 5.6 C 1.6 km/h
20 05-05-2021 01:35:00 5.6 C 6.5 g/m*3 5.6 C 3.2 km/h
21 05-05-2021 01:40:00 5.4 C 6.42 g/m*3 5.4 C 1.6 km/h
22 05-05-2021 01:45:00 5.3 C 6.38 g/m*3 5.3 C 3.2 km/h
23 05-05-2021 01:50:00 5.3 C 6.38 g/m*3 5.3 C 4.8 km/h
24 05-05-2021 01:55:00 5.2 C 6.33 g/m*3 5.2 C 3.2 km/h
25 05-05-2021 02:00:00 5.1 C 6.29 g/m*3 5.1 C 3.2 km/h
Sensor: Nr:Datum:Temp:Abs-Feuchte:Windchill:Wind:
Aussen-T/F 26 05-05-2021 02:05:00 5 C 6.18 g/m*3 5 C 3.2 km/h
27 05-05-2021 02:10:00 4.8 C 6.1 g/m*3 4.8 C 3.2 km/h
28 05-05-2021 02:15:00 4.7 C 6.06 g/m*3 4.7 C 4.8 km/h
29 05-05-2021 02:20:00 4.6 C 6.02 g/m*3 4.6 C 4.8 km/h
30 05-05-2021 02:25:00 4.5 C 5.98 g/m*3 4.5 C 3.2 km/h
31 05-05-2021 02:30:00 4.4 C 5.94 g/m*3 4.4 C 3.2 km/h
32 05-05-2021 02:35:00 4.4 C 5.94 g/m*3 4.4 C 3.2 km/h
33 05-05-2021 02:40:00 4.3 C 5.9 g/m*3 4.3 C 3.2 km/h
34 05-05-2021 02:45:00 4.3 C 5.9 g/m*3 4.3 C 3.2 km/h
35 05-05-2021 02:50:00 4.3 C 5.9 g/m*3 4.3 C 4.8 km/h
36 05-05-2021 02:55:00 4.3 C 5.84 g/m*3 4.3 C 3.2 km/h
37 05-05-2021 03:00:00 4.3 C 5.84 g/m*3 4.3 C 3.2 km/h
38 05-05-2021 03:05:00 4.3 C 5.84 g/m*3 2.78 C 6.4 km/h
39 05-05-2021 03:10:00 4.2 C 5.8 g/m*3 4.2 C 1.6 km/h
40 05-05-2021 03:15:00 4.2 C 5.8 g/m*3 4.2 C 3.2 km/h
41 05-05-2021 03:20:00 4.2 C 5.8 g/m*3 4.2 C 3.2 km/h
42 05-05-2021 03:25:00 4.1 C 5.7 g/m*3 4.1 C 4.8 km/h
43 05-05-2021 03:30:00 4.1 C 5.76 g/m*3 4.1 C 0 km/h
44 05-05-2021 03:35:00 4.1 C 5.76 g/m*3 4.1 C 4.8 km/h
45 05-05-2021 03:40:00 4.1 C 5.76 g/m*3 2.05 C 8.1 km/h
46 05-05-2021 03:45:00 4.1 C 5.76 g/m*3 2.05 C 8.1 km/h
47 05-05-2021 03:50:00 4.2 C 5.8 g/m*3 2.67 C 6.4 km/h
48 05-05-2021 03:55:00 4.2 C 5.73 g/m*3 4.2 C 3.2 km/h
49 05-05-2021 04:00:00 4.3 C 5.77 g/m*3 4.3 C 1.6 km/h
50 05-05-2021 04:05:00 4.3 C 5.77 g/m*3 4.3 C 1.6 km/h
Sensor: Nr:Datum:Temp:Abs-Feuchte:Windchill:Wind:
Aussen-T/F 51 05-05-2021 04:10:00 4.2 C 5.73 g/m*3 4.2 C 1.6 km/h
52 05-05-2021 04:15:00 4.2 C 5.73 g/m*3 4.2 C 1.6 km/h
53 05-05-2021 04:20:00 4.2 C 5.73 g/m*3 2.67 C 6.4 km/h
54 05-05-2021 04:25:00 4.2 C 5.73 g/m*3 2.17 C 8.1 km/h
55 05-05-2021 04:30:00 4.3 C 5.77 g/m*3 4.3 C 3.2 km/h
56 05-05-2021 04:35:00 4.3 C 5.77 g/m*3 4.3 C 4.8 km/h
57 05-05-2021 04:40:00 4.4 C 5.75 g/m*3 4.4 C 3.2 km/h
58 05-05-2021 04:45:00 4.4 C 5.75 g/m*3 4.4 C 4.8 km/h
59 05-05-2021 04:50:00 4.5 C 5.72 g/m*3 1.79 C 11.3 km/h
60 05-05-2021 04:55:00 4.6 C 5.69 g/m*3 4.6 C 3.2 km/h
61 05-05-2021 05:00:00 4.7 C 5.73 g/m*3 3.25 C 6.4 km/h
62 05-05-2021 05:05:00 4.7 C 5.73 g/m*3 4.7 C 3.2 km/h
63 05-05-2021 05:10:00 4.6 C 5.69 g/m*3 4.6 C 4.8 km/h
64 05-05-2021 05:15:00 4.6 C 5.69 g/m*3 4.6 C 4.8 km/h
65 05-05-2021 05:20:00 4.6 C 5.69 g/m*3 2.64 C 8.1 km/h
66 05-05-2021 05:25:00 4.7 C 5.73 g/m*3 4.7 C 3.2 km/h
67 05-05-2021 05:30:00 4.8 C 5.77 g/m*3 3.36 C 6.4 km/h
68 05-05-2021 05:35:00 5 C 5.78 g/m*3 2.39 C 11.3 km/h
69 05-05-2021 05:40:00 5.1 C 5.81 g/m*3 5.1 C 3.2 km/h
70 05-05-2021 05:45:00 5.1 C 5.75 g/m*3 3.71 C 6.4 km/h
71 05-05-2021 05:50:00 5.1 C 5.68 g/m*3 3.71 C 6.4 km/h
72 05-05-2021 05:55:00 5.1 C 5.68 g/m*3 5.1 C 4.8 km/h
73 05-05-2021 06:00:00 5.1 C 5.68 g/m*3 3.23 C 8.1 km/h
74 05-05-2021 06:05:00 5.1 C 5.68 g/m*3 3.71 C 6.4 km/h
75 05-05-2021 06:10:00 5.1 C 5.68 g/m*3 2.84 C 9.7 km/h
Sensor: Nr:Datum:Temp:Abs-Feuchte:Windchill:Wind:
Aussen-T/F 76 05-05-2021 06:15:00 5.2 C 5.71 g/m*3 3.82 C 6.4 km/h
77 05-05-2021 06:20:00 5.3 C 5.75 g/m*3 5.3 C 3.2 km/h
78 05-05-2021 06:25:00 5.3 C 5.75 g/m*3 3.94 C 6.4 km/h
79 05-05-2021 06:30:00 5.3 C 5.75 g/m*3 3.94 C 6.4 km/h
80 05-05-2021 06:35:00 5.3 C 5.82 g/m*3 5.3 C 4.8 km/h
81 05-05-2021 06:40:00 5.3 C 5.82 g/m*3 2.46 C 12.9 km/h
82 05-05-2021 06:45:00 5.4 C 5.79 g/m*3 2.58 C 12.9 km/h
83 05-05-2021 06:50:00 5.4 C 5.79 g/m*3 3.58 C 8.1 km/h
84 05-05-2021 06:55:00 5.6 C 5.87 g/m*3 3.44 C 9.7 km/h
85 05-05-2021 07:00:00 5.7 C 5.84 g/m*3 3.23 C 11.3 km/h
86 05-05-2021 07:05:00 5.8 C 5.87 g/m*3 4.05 C 8.1 km/h
87 05-05-2021 07:10:00 5.8 C 5.87 g/m*3 3.36 C 11.3 km/h
88 05-05-2021 07:15:00 5.8 C 5.8 g/m*3 3.07 C 12.9 km/h
89 05-05-2021 07:20:00 5.9 C 5.91 g/m*3 4.17 C 8.1 km/h
90 05-05-2021 07:25:00 5.9 C 5.84 g/m*3 3.19 C 12.9 km/h
91 05-05-2021 07:30:00 5.9 C 5.91 g/m*3 5.9 C 4.8 km/h
92 05-05-2021 07:35:00 5.9 C 5.91 g/m*3 4.63 C 6.4 km/h
93 05-05-2021 07:40:00 5.8 C 5.87 g/m*3 4.52 C 6.4 km/h
94 05-05-2021 07:45:00 5.8 C 5.95 g/m*3 4.52 C 6.4 km/h
95 05-05-2021 07:50:00 5.8 C 5.95 g/m*3 3.07 C 12.9 km/h
96 05-05-2021 07:55:00 6 C 5.95 g/m*3 3.6 C 11.3 km/h
97 05-05-2021 08:00:00 6.2 C 6.03 g/m*3 3.56 C 12.9 km/h
98 05-05-2021 08:05:00 6.4 C 6.11 g/m*3 4.08 C 11.3 km/h
99 05-05-2021 08:10:00 6.5 C 6.15 g/m*3 4.2 C 11.3 km/h
100 05-05-2021 08:15:00 6.6 C 6.19 g/m*3 5.44 C 6.4 km/h
Sensor: Nr:Datum:Temp:Abs-Feuchte:Windchill:Wind:
Aussen-T/F 101 05-05-2021 08:20:00 6.6 C 6.11 g/m*3 4.04 C 12.9 km/h
102 05-05-2021 08:25:00 6.6 C 6.11 g/m*3 4.63 C 9.7 km/h
103 05-05-2021 08:30:00 6.5 C 6.07 g/m*3 3.67 C 14.5 km/h
104 05-05-2021 08:35:00 6.5 C 6.07 g/m*3 3.67 C 14.5 km/h
105 05-05-2021 08:40:00 6.6 C 6.11 g/m*3 4.04 C 12.9 km/h
106 05-05-2021 08:45:00 6.8 C 6.19 g/m*3 4.56 C 11.3 km/h
107 05-05-2021 08:50:00 6.9 C 6.24 g/m*3 3.73 C 17.7 km/h
108 05-05-2021 08:55:00 7.1 C 6.16 g/m*3 3.98 C 17.7 km/h
109 05-05-2021 09:00:00 7.1 C 6.16 g/m*3 3.8 C 19.3 km/h
110 05-05-2021 09:05:00 7.2 C 6.2 g/m*3 4.77 C 12.9 km/h
111 05-05-2021 09:10:00 7.3 C 6.24 g/m*3 4.23 C 17.7 km/h
112 05-05-2021 09:15:00 7.6 C 6.28 g/m*3 4.81 C 16.1 km/h
113 05-05-2021 09:20:00 7.8 C 6.28 g/m*3 5.27 C 14.5 km/h
114 05-05-2021 09:25:00 7.9 C 6.24 g/m*3 4.98 C 17.7 km/h
115 05-05-2021 09:30:00 7.9 C 6.16 g/m*3 4.47 C 22.5 km/h
116 05-05-2021 09:35:00 8 C 6.28 g/m*3 4.93 C 19.3 km/h
117 05-05-2021 09:40:00 8.3 C 6.41 g/m*3 5.89 C 14.5 km/h
118 05-05-2021 09:45:00 8.6 C 6.44 g/m*3 5.52 C 20.9 km/h
119 05-05-2021 09:50:00 8.7 C 6.4 g/m*3 5.98 C 17.7 km/h
120 05-05-2021 09:55:00 8.8 C 6.44 g/m*3 6.11 C 17.7 km/h
121 05-05-2021 10:00:00 8.8 C 6.35 g/m*3 5.48 C 24.1 km/h
122 05-05-2021 10:05:00 8.2 C 6.53 g/m*3 5.36 C 17.7 km/h
123 05-05-2021 10:10:00 7.7 C 6.49 g/m*3 4.07 C 24.1 km/h
124 05-05-2021 10:15:00 7.1 C 6.24 g/m*3 3.15 C 25.7 km/h
125 05-05-2021 10:20:00 6.4 C 6.26 g/m*3 2.4 C 24.1 km/h
Sensor: Nr:Datum:Temp:Abs-Feuchte:Windchill:Wind:
Aussen-T/F 126 05-05-2021 10:25:00 6.2 C 6.32 g/m*3 2.66 C 19.3 km/h
127 05-05-2021 10:30:00 5.9 C 6.2 g/m*3 3.48 C 11.3 km/h
128 05-05-2021 10:35:00 5.9 C 6.27 g/m*3 3.8 C 9.7 km/h
129 05-05-2021 10:40:00 6.2 C 6.4 g/m*3 3.3 C 14.5 km/h
130 05-05-2021 10:45:00 6.4 C 6.48 g/m*3 3.11 C 17.7 km/h
131 05-05-2021 10:50:00 6.9 C 6.62 g/m*3 3.73 C 17.7 km/h
132 05-05-2021 10:55:00 7.2 C 6.67 g/m*3 4.11 C 17.7 km/h
133 05-05-2021 11:00:00 7.6 C 6.77 g/m*3 4.81 C 16.1 km/h
134 05-05-2021 11:05:00 8 C 6.86 g/m*3 5.11 C 17.7 km/h
135 05-05-2021 11:10:00 7.8 C 6.69 g/m*3 4.51 C 20.9 km/h
136 05-05-2021 11:15:00 7.4 C 6.52 g/m*3 4.17 C 19.3 km/h
137 05-05-2021 11:20:00 7.2 C 6.44 g/m*3 3.92 C 19.3 km/h
138 05-05-2021 11:25:00 7.1 C 6.24 g/m*3 2.74 C 30.6 km/h
139 05-05-2021 11:30:00 6.8 C 6.19 g/m*3 2.35 C 30.6 km/h
140 05-05-2021 11:35:00 6.7 C 6 g/m*3 4.44 C 11.3 km/h
141 05-05-2021 11:40:00 6.8 C 6.19 g/m*3 4.29 C 12.9 km/h
142 05-05-2021 11:45:00 7.3 C 6.48 g/m*3 4.9 C 12.9 km/h
143 05-05-2021 11:50:00 7.9 C 6.65 g/m*3 4.98 C 17.7 km/h
144 05-05-2021 11:55:00 8.3 C 6.57 g/m*3 5.68 C 16.1 km/h
145 05-05-2021 12:00:00 8.7 C 6.83 g/m*3 6.38 C 14.5 km/h
146 05-05-2021 12:05:00 9.1 C 7.01 g/m*3 6.48 C 17.7 km/h
147 05-05-2021 12:10:00 9.4 C 6.96 g/m*3 7.24 C 14.5 km/h
148 05-05-2021 12:15:00 9.6 C 6.87 g/m*3 7.29 C 16.1 km/h
149 05-05-2021 12:20:00 9.7 C 6.91 g/m*3 8.63 C 8.1 km/h
150 05-05-2021 12:25:00 9.7 C 6.36 g/m*3 7.23 C 17.7 km/h
Sensor: Nr:Datum:Temp:Abs-Feuchte:Windchill:Wind:
Aussen-T/F 151 05-05-2021 12:30:00 9.7 C 6.27 g/m*3 7.41 C 16.1 km/h
152 05-05-2021 12:35:00 9.7 C 6.64 g/m*3 7.07 C 19.3 km/h
153 05-05-2021 12:40:00 9.6 C 6.78 g/m*3 7.94 C 11.3 km/h
154 05-05-2021 12:45:00 9.7 C 6.45 g/m*3 6.63 C 24.1 km/h
155 05-05-2021 12:50:00 9.9 C 6.44 g/m*3 7.32 C 19.3 km/h
156 05-05-2021 12:55:00 10.1 C 6.34 g/m*3 7.73 C 17.7 km/h
157 05-05-2021 13:00:00 9.8 C 6.4 g/m*3 7.04 C 20.9 km/h
158 05-05-2021 13:05:00 9.5 C 6.46 g/m*3 6.66 C 20.9 km/h
159 05-05-2021 13:10:00 9.3 C 6.29 g/m*3 6.92 C 16.1 km/h
160 05-05-2021 13:15:00 9.2 C 6.34 g/m*3 6.79 C 16.1 km/h
161 05-05-2021 13:20:00 9.1 C 6.48 g/m*3 6.67 C 16.1 km/h
162 05-05-2021 13:25:00 9 C 6.35 g/m*3 6.19 C 19.3 km/h
163 05-05-2021 13:30:00 8.9 C 6.31 g/m*3 5.75 C 22.5 km/h
164 05-05-2021 13:35:00 9 C 6.26 g/m*3 6.19 C 19.3 km/h
165 05-05-2021 13:40:00 9.1 C 6.21 g/m*3 6.15 C 20.9 km/h
166 05-05-2021 13:45:00 9.2 C 6.07 g/m*3 6.44 C 19.3 km/h
167 05-05-2021 13:50:00 9.2 C 5.98 g/m*3 6.99 C 14.5 km/h
168 05-05-2021 13:55:00 9.2 C 5.98 g/m*3 6.61 C 17.7 km/h
169 05-05-2021 14:00:00 9.2 C 5.89 g/m*3 6.61 C 17.7 km/h
170 05-05-2021 14:05:00 9.2 C 6.16 g/m*3 6.13 C 22.5 km/h
171 05-05-2021 14:10:00 9.2 C 6.25 g/m*3 6.79 C 16.1 km/h
172 05-05-2021 14:15:00 9.2 C 6.25 g/m*3 6.99 C 14.5 km/h
173 05-05-2021 14:20:00 9.1 C 6.21 g/m*3 6.67 C 16.1 km/h
174 05-05-2021 14:25:00 9.2 C 6.25 g/m*3 6.79 C 16.1 km/h
175 05-05-2021 14:30:00 9.1 C 6.21 g/m*3 6.87 C 14.5 km/h
Sensor: Nr:Datum:Temp:Abs-Feuchte:Windchill:Wind:
Aussen-T/F 176 05-05-2021 14:35:00 9 C 6.26 g/m*3 7.21 C 11.3 km/h
177 05-05-2021 14:40:00 9.1 C 6.3 g/m*3 7.61 C 9.7 km/h
178 05-05-2021 14:45:00 9.4 C 6.33 g/m*3 7.7 C 11.3 km/h
179 05-05-2021 14:50:00 9.6 C 6.32 g/m*3 7.7 C 12.9 km/h
180 05-05-2021 14:55:00 9.6 C 6.14 g/m*3 7.29 C 16.1 km/h
181 05-05-2021 15:00:00 9.7 C 6.27 g/m*3 6.91 C 20.9 km/h
182 05-05-2021 15:05:00 9.8 C 6.4 g/m*3 7.36 C 17.7 km/h
183 05-05-2021 15:10:00 10.2 C 6.38 g/m*3 8.22 C 14.5 km/h
184 05-05-2021 15:15:00 10.3 C 6.13 g/m*3 8.16 C 16.1 km/h
185 05-05-2021 15:20:00 10 C 5.26 g/m*3 6.76 C 27.4 km/h
186 05-05-2021 15:25:00 9.6 C 5.04 g/m*3 6.5 C 24.1 km/h
187 05-05-2021 15:30:00 9.3 C 5.12 g/m*3 7.33 C 12.9 km/h
188 05-05-2021 15:35:00 9.3 C 5.21 g/m*3 7.85 C 9.7 km/h
189 05-05-2021 15:40:00 9.4 C 5.34 g/m*3 7.97 C 9.7 km/h
190 05-05-2021 15:45:00 9.6 C 5.5 g/m*3 8.91 C 6.4 km/h
191 05-05-2021 15:50:00 9.9 C 5.79 g/m*3 9.9 C 4.8 km/h
192 05-05-2021 15:55:00 10.7 C 6.09 g/m*3 10.7 C 4.8 km/h
193 05-05-2021 16:00:00 11.6 C 5.92 g/m*3 11.6 C 11.3 km/h
194 05-05-2021 16:05:00 12.5 C 6.05 g/m*3 12.5 C 16.1 km/h
195 05-05-2021 16:10:00 12.6 C 5.64 g/m*3 12.6 C 16.1 km/h
196 05-05-2021 16:15:00 12.1 C 5.68 g/m*3 12.1 C 16.1 km/h
197 05-05-2021 16:20:00 12.1 C 6.11 g/m*3 12.1 C 14.5 km/h
198 05-05-2021 16:25:00 12.4 C 6.34 g/m*3 12.4 C 20.9 km/h
199 05-05-2021 16:30:00 12.7 C 6.12 g/m*3 12.7 C 22.5 km/h
200 05-05-2021 16:35:00 12.9 C 6.42 g/m*3 12.9 C 14.5 km/h
Sensor: Nr:Datum:Temp:Abs-Feuchte:Windchill:Wind:
Aussen-T/F 201 05-05-2021 16:40:00 13.2 C 6.2 g/m*3 13.2 C 19.3 km/h
202 05-05-2021 16:45:00 13.4 C 5.7 g/m*3 13.4 C 22.5 km/h
203 05-05-2021 16:50:00 13.4 C 5.7 g/m*3 13.4 C 19.3 km/h
204 05-05-2021 16:55:00 13 C 5.67 g/m*3 13 C 17.7 km/h
205 05-05-2021 17:00:00 12.6 C 5.75 g/m*3 12.6 C 17.7 km/h
206 05-05-2021 17:05:00 12.4 C 5.57 g/m*3 12.4 C 14.5 km/h
207 05-05-2021 17:10:00 12.8 C 5.71 g/m*3 12.8 C 12.9 km/h
208 05-05-2021 17:15:00 13.2 C 5.51 g/m*3 13.2 C 16.1 km/h
209 05-05-2021 17:20:00 12.8 C 5.6 g/m*3 12.8 C 16.1 km/h
210 05-05-2021 17:25:00 12.4 C 5.24 g/m*3 12.4 C 14.5 km/h
211 05-05-2021 17:30:00 12.1 C 5.36 g/m*3 12.1 C 12.9 km/h
212 05-05-2021 17:35:00 11.8 C 5.47 g/m*3 11.8 C 11.3 km/h
213 05-05-2021 17:40:00 11.5 C 5.58 g/m*3 11.5 C 16.1 km/h
214 05-05-2021 17:45:00 11.3 C 5.3 g/m*3 11.3 C 11.3 km/h
215 05-05-2021 17:50:00 11.3 C 5.3 g/m*3 11.3 C 11.3 km/h
216 05-05-2021 17:55:00 11.4 C 5.13 g/m*3 11.4 C 14.5 km/h
217 05-05-2021 18:00:00 11.5 C 5.27 g/m*3 11.5 C 12.9 km/h
218 05-05-2021 18:05:00 11.4 C 5.13 g/m*3 11.4 C 14.5 km/h
219 05-05-2021 18:10:00 11.4 C 5.23 g/m*3 11.4 C 9.7 km/h
220 05-05-2021 18:15:00 11.4 C 5.03 g/m*3 11.4 C 12.9 km/h
221 05-05-2021 18:20:00 11.4 C 4.93 g/m*3 11.4 C 8.1 km/h
222 05-05-2021 18:25:00 11.4 C 5.03 g/m*3 11.4 C 8.1 km/h
223 05-05-2021 18:30:00 11.4 C 5.03 g/m*3 11.4 C 9.7 km/h
224 05-05-2021 18:35:00 11.5 C 5.16 g/m*3 11.5 C 11.3 km/h
225 05-05-2021 18:40:00 11.5 C 5.16 g/m*3 11.5 C 9.7 km/h
Sensor: Nr:Datum:Temp:Abs-Feuchte:Windchill:Wind:
Aussen-T/F 226 05-05-2021 18:45:00 11.5 C 5.16 g/m*3 11.5 C 9.7 km/h
227 05-05-2021 18:50:00 12.2 C 5.4 g/m*3 12.2 C 14.5 km/h
228 05-05-2021 18:55:00 12.7 C 5.45 g/m*3 12.7 C 17.7 km/h
229 05-05-2021 19:00:00 12.5 C 5.17 g/m*3 12.5 C 9.7 km/h
230 05-05-2021 19:05:00 12.2 C 5.29 g/m*3 12.2 C 9.7 km/h
231 05-05-2021 19:10:00 11.9 C 5.19 g/m*3 11.9 C 8.1 km/h
232 05-05-2021 19:15:00 11.7 C 5.12 g/m*3 11.7 C 8.1 km/h
233 05-05-2021 19:20:00 11.5 C 5.37 g/m*3 11.5 C 6.4 km/h
234 05-05-2021 19:25:00 11.4 C 5.44 g/m*3 11.4 C 6.4 km/h
235 05-05-2021 19:30:00 11.3 C 5.2 g/m*3 11.3 C 6.4 km/h
236 05-05-2021 19:35:00 11.3 C 5 g/m*3 11.3 C 11.3 km/h
237 05-05-2021 19:40:00 11.1 C 4.83 g/m*3 11.1 C 9.7 km/h
238 05-05-2021 19:45:00 11 C 5.31 g/m*3 9.88 C 9.7 km/h
239 05-05-2021 19:50:00 10.8 C 5.73 g/m*3 9.64 C 9.7 km/h
240 05-05-2021 19:55:00 10.6 C 5.86 g/m*3 8.92 C 12.9 km/h
241 05-05-2021 20:00:00 10.3 C 5.94 g/m*3 8.55 C 12.9 km/h
242 05-05-2021 20:05:00 10.1 C 6.05 g/m*3 8.54 C 11.3 km/h
243 05-05-2021 20:10:00 9.7 C 5.99 g/m*3 7.82 C 12.9 km/h
244 05-05-2021 20:15:00 9.6 C 6.05 g/m*3 7.48 C 14.5 km/h
245 05-05-2021 20:20:00 9.4 C 6.06 g/m*3 8.28 C 8.1 km/h
246 05-05-2021 20:25:00 9.3 C 6.11 g/m*3 7.12 C 14.5 km/h
247 05-05-2021 20:30:00 9.1 C 6.12 g/m*3 7.61 C 9.7 km/h
248 05-05-2021 20:35:00 8.9 C 6.22 g/m*3 7.69 C 8.1 km/h
249 05-05-2021 20:40:00 8.8 C 6.09 g/m*3 7.98 C 6.4 km/h
250 05-05-2021 20:45:00 8.6 C 6.27 g/m*3 6.25 C 14.5 km/h
Sensor: Nr:Datum:Temp:Abs-Feuchte:Windchill:Wind:
Aussen-T/F 251 05-05-2021 20:50:00 8.3 C 6.32 g/m*3 6.37 C 11.3 km/h
252 05-05-2021 20:55:00 8 C 6.45 g/m*3 6.64 C 8.1 km/h
253 05-05-2021 21:00:00 7.7 C 6.32 g/m*3 5.94 C 9.7 km/h
254 05-05-2021 21:05:00 7.5 C 6.4 g/m*3 7.5 C 4.8 km/h
255 05-05-2021 21:10:00 7.3 C 6.4 g/m*3 6.25 C 6.4 km/h
256 05-05-2021 21:15:00 7.1 C 6.4 g/m*3 7.1 C 3.2 km/h
257 05-05-2021 21:20:00 6.9 C 6.31 g/m*3 5.79 C 6.4 km/h
258 05-05-2021 21:25:00 6.9 C 6.39 g/m*3 6.9 C 4.8 km/h
259 05-05-2021 21:30:00 6.9 C 6.47 g/m*3 6.9 C 3.2 km/h
260 05-05-2021 21:35:00 6.8 C 6.42 g/m*3 5.67 C 6.4 km/h
261 05-05-2021 21:40:00 6.8 C 6.42 g/m*3 5.22 C 8.1 km/h
262 05-05-2021 21:45:00 6.7 C 6.31 g/m*3 3.92 C 14.5 km/h
263 05-05-2021 21:50:00 6.8 C 6.35 g/m*3 4.87 C 9.7 km/h
264 05-05-2021 21:55:00 6.8 C 6.35 g/m*3 4.04 C 14.5 km/h
265 05-05-2021 22:00:00 6.8 C 6.35 g/m*3 5.22 C 8.1 km/h
266 05-05-2021 22:05:00 6.7 C 6.31 g/m*3 5.11 C 8.1 km/h
267 05-05-2021 22:10:00 6.7 C 6.31 g/m*3 5.11 C 8.1 km/h
268 05-05-2021 22:15:00 6.6 C 6.27 g/m*3 5.44 C 6.4 km/h
269 05-05-2021 22:20:00 6.5 C 6.22 g/m*3 5.33 C 6.4 km/h
270 05-05-2021 22:25:00 6.3 C 6.14 g/m*3 5.1 C 6.4 km/h
271 05-05-2021 22:30:00 6.2 C 6.1 g/m*3 6.2 C 4.8 km/h
272 05-05-2021 22:35:00 6.1 C 6.06 g/m*3 4.4 C 8.1 km/h
273 05-05-2021 22:40:00 6 C 6.1 g/m*3 4.75 C 6.4 km/h
274 05-05-2021 22:45:00 5.9 C 6.06 g/m*3 4.17 C 8.1 km/h
275 05-05-2021 22:50:00 5.8 C 6.02 g/m*3 4.52 C 6.4 km/h
Sensor: Nr:Datum:Temp:Abs-Feuchte:Windchill:Wind:
Aussen-T/F 276 05-05-2021 22:55:00 5.7 C 6.05 g/m*3 5.7 C 4.8 km/h
277 05-05-2021 23:00:00 5.7 C 6.05 g/m*3 5.7 C 3.2 km/h
278 05-05-2021 23:05:00 5.6 C 6.01 g/m*3 5.6 C 3.2 km/h
279 05-05-2021 23:10:00 5.6 C 6.01 g/m*3 5.6 C 3.2 km/h
280 05-05-2021 23:15:00 5.6 C 6.01 g/m*3 5.6 C 4.8 km/h
281 05-05-2021 23:20:00 5.5 C 6.04 g/m*3 5.5 C 4.8 km/h
282 05-05-2021 23:25:00 5.4 C 6 g/m*3 5.4 C 3.2 km/h
283 05-05-2021 23:30:00 5.4 C 6 g/m*3 5.4 C 4.8 km/h
284 05-05-2021 23:35:00 5.4 C 6 g/m*3 5.4 C 1.6 km/h
285 05-05-2021 23:40:00 5.4 C 6 g/m*3 3.58 C 8.1 km/h
286 05-05-2021 23:45:00 5.4 C 6 g/m*3 5.4 C 3.2 km/h
287 05-05-2021 23:50:00 5.4 C 6 g/m*3 5.4 C 4.8 km/h
288 05-05-2021 23:55:00 5.4 C 6.07 g/m*3 5.4 C 4.8 km/h

Legende:
   Min
   Max


Maximal/Minimal-Werte vom 23.02.2003 - 06.05.2021

Sensor Min Max Avg
Temp
(Aussen-T/F)
-16.4 °C
20-12-2009  01:30:01
40.4 °C
25-07-2019  16:20:00
11.09 °C

Die Daten stammen von einer Davis Vantage Pro 2 Wetter-Station und werden unter Linux mit der Software wview2wettercgi und aufbereitet. Alle Angaben erfolgen ohne Gewähr für ihre Vollständigkeit oder Richtigkeit.
Kontakt: Rainer Krienke krienke@uni-koblenz.de . Meine Webseiten an der Uni Koblenz oder privat.
Version: $Revision: 0.78 $